Quick links : Home Page : Contact Us : Index : Site Map : Search Site : Ephemerides


(162567) 2000 RW37

Orbital Elements

The following orbital elements are taken from MPO123124
(162567) 2000 RW37
Epoch 2007 Oct. 27.0 TT = JDT 2454400.5                 MPC
M 307.39919              (2000.0)            P               Q
n   0.70646344     Peri.  133.22430     -0.29569918     -0.94934892
a   1.2485605      Node   333.41627     +0.79309946     -0.18194734
e   0.2507726      Incl.   13.74069     +0.53249905     -0.25618704
P   1.40           H   20.0           G   0.15           U   1
From 154 observations at 3 oppositions, 2000-2007, mean residual 0".53.
An explanation of the orbital elements is available.

These orbital elements are also available in forms suitable for loading into a number of popular planetarium-type software programs.


Ephemeris

The following ephemeris is at intervals of five days. A daily ephemeris covering the same time interval is also available.

Personalized ephemerides for this (and other) objects may be generated using the Minor Planet & Comet Ephemeris Service.

Date    TT    R. A. (2000) Decl.     Delta      r     Elong.  Phase     V
2008 04 14    10 51.66   -48 13.4    0.286    1.203   128.9    40.4    19.3
2008 04 19    10 51.74   -46 40.9    0.311    1.223   128.6    39.9    19.5
2008 04 24    10 53.95   -45 10.3    0.338    1.243   127.9    39.7    19.7
2008 04 29    10 57.87   -43 42.9    0.366    1.262   127.1    39.6    19.9
2008 05 04    11 03.22   -42 20.0    0.394    1.281   126.0    39.6    20.1
2008 05 09    11 09.76   -41 02.4    0.424    1.299   124.7    39.7    20.3
2008 05 14    11 17.29   -39 51.0    0.456    1.317   123.3    39.9    20.5
2008 05 19    11 25.63   -38 45.9    0.488    1.335   121.8    40.1    20.7
2008 05 24    11 34.61   -37 47.2    0.522    1.352   120.1    40.4    20.8

Back to Observable Critical-List Minor Planets

MPC

Valid HTML 4.01!